Find Kuiper-00028

NORAD ID: 63741 Int'l Des: 2025-088 Owner: KUIP Country: US Constellation: amazon-leo operational
LEOCIRCULAR

实时位置

正在加载3D地球...

关于 Kuiper-00028

正在加载描述...

即将过境

Passes for default location (London). Set your location on the main map for personalized predictions.

高度历史

Loading altitude history...

两行轨道根数

1 63741U 25088T 26127.44784926 .00001221 00000-0 18916-3 0 9990
2 63741 51.8995 193.2235 0000537 92.5342 267.5682 14.79918718 56760
Epoch: May 7, 2026 • Age: 12 hours

当前状态

高度 633.7 km
速度 7.55 km/s
星下点 44.65°N, 40.05°E
发射日期 Apr 28, 2025
运行时间 1 years
类型 internet

技术详情

分类 Payload
质量 490.00 kg
干质量 490.00 kg
总质量 490.00 kg
长度 1.80 m
直径 0.70 m
跨度 5.00 m
形状 Box + 2 pan
制造商 KUIP
平台类型 Kuiper
阶段状态 In Orbit
所有者/国家 KUIP/US

Most Searched